START_TIME,STEP,MOV.,A46,t_acc.,A13,t_acc.,M47,t_acc.,A17,t_acc.,A28,t_acc.,M38,t_acc.
1979-07-18 00:00:25.460 ,0,0,,0,1.,4.8,0.,4.8,,0,0.,4.8,0.,4.8
1979-07-18 00:00:30.260 ,0,0,,0,1.,4.8,0.,4.8,,0,0.,4.8,0.,4.8
1979-07-18 00:00:35.060 ,0,0,,0,0.,4.8,0.,4.8,,0,0.,4.8,0.,4.8
1979-07-18 00:00:39.860 ,0,0,,0,0.,4.8,0.,4.8,,0,0.,4.8,0.,4.8
1979-07-18 00:00:44.660 ,0,0,,0,0.,4.8,0.,4.8,,0,0.,4.8,1.,4.8
1979-07-18 00:00:49.460 ,1,0,,0,0.,4.8,0.,4.8,,0,0.,4.8,0.,4.8
1979-07-18 00:00:54.260 ,1,0,,0,0.,4.8,0.,4.8,,0,0.,4.8,0.,4.8
1979-07-18 00:00:59.060 ,1,0,,0,0.,4.8,0.,4.8,,0,0.,4.8,0.,4.8
1979-07-18 00:01:03.860 ,1,0,,0,3.,4.8,0.,4.8,,0,0.,4.8,1.,4.8
1979-07-18 00:01:08.660 ,1,0,,0,3.,4.8,0.,4.8,,0,0.,4.8,0.,4.8
1979-07-18 00:01:13.460 ,1,0,,0,3.,4.8,0.,4.8,,0,0.,4.8,0.,4.8
1979-07-18 00:01:18.260 ,1,0,,0,2.,4.8,0.,4.8,,0,0.,4.8,0.,4.8
1979-07-18 00:01:23.060 ,1,0,,0,1.,4.8,0.,4.8,,0,0.,4.8,1.,4.8
1979-07-18 00:01:27.860 ,1,0,,0,0.,4.8,0.,4.8,,0,0.,4.8,0.,4.8
1979-07-18 00:01:32.660 ,1,0,,0,0.,4.8,0.,4.8,,0,0.,4.8,0.,4.8
1979-07-18 00:01:37.460 ,2,0,,0,0.,4.8,0.,4.8,,0,0.,4.8,0.,4.8
1979-07-18 00:01:42.260 ,2,0,,0,0.,4.8,0.,4.8,,0,0.,4.8,0.,4.8
1979-07-18 00:01:47.060 ,2,0,,0,0.,4.8,0.,4.8,,0,0.,4.8,0.,4.8
1979-07-18 00:01:51.860 ,2,0,,0,1.,4.8,0.,4.8,,0,0.,4.8,0.,4.8
1979-07-18 00:01:56.660 ,2,0,,0,0.,4.8,0.,4.8,,0,0.,4.8,0.,4.8
1979-07-18 00:02:01.460 ,2,0,,0,3.,4.8,0.,4.8,,0,0.,4.8,0.,4.8
1979-07-18 00:02:06.260 ,2,0,,0,2.,4.8,0.,4.8,,0,0.,4.8,0.,4.8
1979-07-18 00:02:11.060 ,2,0,,0,1.,4.8,0.,4.8,,0,0.,4.8,0.,4.8
1979-07-18 00:02:15.860 ,2,0,,0,0.,4.8,0.,4.8,,0,0.,4.8,0.,4.8
1979-07-18 00:02:20.660 ,2,0,,0,0.,4.8,0.,4.8,,0,0.,4.8,0.,4.8
1979-07-18 00:02:25.460 ,3,0,,0,0.,4.8,0.,4.8,,0,0.,4.8,0.,4.8
1979-07-18 00:02:30.260 ,3,0,,0,0.,4.8,0.,4.8,,0,0.,4.8,0.,4.8
1979-07-18 00:02:35.060 ,3,0,,0,2.,4.8,0.,4.8,,0,0.,4.8,0.,4.8
1979-07-18 00:02:39.860 ,3,0,,0,2.,4.8,0.,4.8,,0,0.,4.8,0.,4.8
1979-07-18 00:02:44.660 ,3,0,,0,0.,4.8,0.,4.8,,0,0.,4.8,1.,4.8
1979-07-18 00:02:49.460 ,3,0,,0,3.,4.8,0.,4.8,,0,0.,4.8,0.,4.8
1979-07-18 00:02:54.260 ,3,0,,0,0.,4.8,0.,4.8,,0,0.,4.8,0.,4.8
1979-07-18 00:02:59.060 ,3,0,,0,3.,4.8,0.,4.8,,0,0.,4.8,0.,4.8
1979-07-18 00:03:03.860 ,3,0,,0,0.,4.8,0.,4.8,,0,0.,4.8,0.,4.8
1979-07-18 00:03:08.660 ,3,0,,0,0.,4.8,0.,4.8,,0,0.,4.8,0.,4.8
1979-07-18 00:03:13.460 ,4,0,,0,0.,4.8,0.,4.8,,0,0.,4.8,1.,4.8
1979-07-18 00:03:18.260 ,4,0,,0,0.,4.8,0.,4.8,,0,0.,4.8,1.,4.8
1979-07-18 00:03:23.060 ,4,0,,0,0.,4.8,0.,4.8,,0,0.,4.8,0.,4.8
1979-07-18 00:03:27.860 ,4,0,,0,6.,4.8,0.,4.8,,0,0.,4.8,1.,4.8
1979-07-18 00:03:32.660 ,4,0,,0,1.,4.8,0.,4.8,,0,0.,4.8,0.,4.8
1979-07-18 00:03:37.460 ,4,0,,0,1.,4.8,0.,4.8,,0,0.,4.8,0.,4.8
1979-07-18 00:03:42.260 ,4,0,,0,2.,4.8,0.,4.8,,0,0.,4.8,0.,4.8
1979-07-18 00:03:47.060 ,4,0,,0,2.,4.8,0.,4.8,,0,0.,4.8,0.,4.8
1979-07-18 00:03:51.860 ,4,0,,0,0.,4.8,0.,4.8,,0,0.,4.8,0.,4.8
1979-07-18 00:03:56.660 ,4,0,,0,0.,4.8,0.,4.8,,0,0.,4.8,1.,4.8
1979-07-18 00:04:01.460 ,5,0,,0,0.,4.8,0.,4.8,,0,0.,4.8,0.,4.8
1979-07-18 00:04:06.260 ,5,0,,0,0.,4.8,0.,4.8,,0,0.,4.8,0.,4.8
1979-07-18 00:04:11.060 ,5,0,,0,0.,4.8,0.,4.8,,0,0.,4.8,1.,4.8
1979-07-18 00:04:15.860 ,5,0,,0,9.,4.8,1.,4.8,,0,0.,4.8,0.,4.8
1979-07-18 00:04:20.660 ,5,0,,0,1.,4.8,0.,4.8,,0,0.,4.8,3.,4.8
1979-07-18 00:04:25.460 ,5,0,,0,4.,4.8,0.,4.8,,0,0.,4.8,0.,4.8
1979-07-18 00:04:30.260 ,5,0,,0,2.,4.8,0.,4.8,,0,0.,4.8,0.,4.8
1979-07-18 00:04:35.060 ,5,0,,0,5.,4.8,0.,4.8,,0,0.,4.8,2.,4.8
1979-07-18 00:04:39.860 ,5,0,,0,0.,4.8,0.,4.8,,0,0.,4.8,0.,4.8
1979-07-18 00:04:44.660 ,5,0,,0,0.,4.8,0.,4.8,,0,0.,4.8,0.,4.8
1979-07-18 00:04:49.460 ,6,0,,0,0.,4.8,0.,4.8,,0,0.,4.8,0.,4.8
1979-07-18 00:04:54.260 ,6,0,,0,0.,4.8,0.,4.8,,0,0.,4.8,2.,4.8
1979-07-18 00:04:59.060 ,6,0,,0,1.,4.8,0.,4.8,,0,0.,4.8,0.,4.8
1979-07-18 00:05:03.860 ,6,0,,0,3.,4.8,0.,4.8,,0,0.,4.8,0.,4.8
1979-07-18 00:05:08.660 ,6,0,,0,4.,4.8,0.,4.8,,0,0.,4.8,0.,4.8
1979-07-18 00:05:13.460 ,6,0,,0,2.,4.8,0.,4.8,,0,0.,4.8,0.,4.8
1979-07-18 00:05:18.260 ,6,0,,0,3.,4.8,0.,4.8,,0,0.,4.8,0.,4.8
1979-07-18 00:05:23.060 ,6,0,,0,1.,4.8,0.,4.8,,0,0.,4.8,1.,4.8
1979-07-18 00:05:27.860 ,6,0,,0,0.,4.8,0.,4.8,,0,0.,4.8,0.,4.8
1979-07-18 00:05:32.660 ,6,0,,0,1.,4.8,0.,4.8,,0,0.,4.8,1.,4.8
1979-07-18 00:05:37.460 ,7,0,,0,0.,4.8,0.,4.8,,0,0.,4.8,0.,4.8
1979-07-18 00:05:42.260 ,7,0,,0,0.,4.8,0.,4.8,,0,0.,4.8,1.,4.8
1979-07-18 00:05:47.060 ,7,0,,0,1.,4.8,0.,4.8,,0,0.,4.8,1.,4.8
1979-07-18 00:05:51.860 ,7,0,,0,10.,4.8,0.,4.8,,0,0.,4.8,0.,4.8
1979-07-18 00:05:56.660 ,7,0,,0,9.,4.8,0.,4.8,,0,0.,4.8,0.,4.8
1979-07-18 00:06:01.460 ,7,0,,0,13.,4.8,0.,4.8,,0,0.,4.8,0.,4.8
1979-07-18 00:06:06.260 ,7,0,,0,11.,4.8,0.,4.8,,0,0.,4.8,0.,4.8
1979-07-18 00:06:11.060 ,7,0,,0,6.,4.8,0.,4.8,,0,0.,4.8,0.,4.8
1979-07-18 00:06:15.860 ,7,0,,0,0.,4.8,0.,4.8,,0,0.,4.8,0.,4.8
1979-07-18 00:06:20.660 ,7,0,,0,0.,4.8,0.,4.8,,0,0.,4.8,0.,4.8
1979-07-18 00:06:25.460 ,7,0,,0,0.,4.8,0.,4.8,,0,0.,4.8,0.,4.8
1979-07-18 00:06:30.260 ,7,0,,0,0.,4.8,0.,4.8,,0,0.,4.8,0.,4.8
1979-07-18 00:06:35.060 ,7,0,,0,3.,4.8,0.,4.8,,0,0.,4.8,0.,4.8
1979-07-18 00:06:39.860 ,7,0,,0,11.,4.8,0.,4.8,,0,0.,4.8,0.,4.8
1979-07-18 00:06:44.660 ,7,0,,0,8.,4.8,0.,4.8,,0,0.,4.8,0.,4.8
1979-07-18 00:06:49.460 ,7,0,,0,14.,4.8,0.,4.8,,0,0.,4.8,0.,4.8
1979-07-18 00:06:54.260 ,7,0,,0,10.,4.8,0.,4.8,,0,0.,4.8,0.,4.8
1979-07-18 00:06:59.060 ,7,0,,0,7.,4.8,0.,4.8,,0,0.,4.8,0.,4.8
1979-07-18 00:07:03.860 ,7,0,,0,0.,4.8,0.,4.8,,0,0.,4.8,0.,4.8
1979-07-18 00:07:08.660 ,7,0,,0,0.,4.8,0.,4.8,,0,0.,4.8,0.,4.8
1979-07-18 00:07:13.460 ,6,0,,0,0.,4.8,0.,4.8,,0,0.,4.8,0.,4.8
1979-07-18 00:07:18.260 ,6,0,,0,0.,4.8,0.,4.8,,0,0.,4.8,0.,4.8
1979-07-18 00:07:23.060 ,6,0,,0,0.,4.8,0.,4.8,,0,0.,4.8,1.,4.8
1979-07-18 00:07:27.860 ,6,0,,0,4.,4.8,0.,4.8,,0,0.,4.8,0.,4.8
1979-07-18 00:07:32.660 ,6,0,,0,5.,4.8,0.,4.8,,0,0.,4.8,1.,4.8
1979-07-18 00:07:37.460 ,6,0,,0,4.,4.8,0.,4.8,,0,0.,4.8,1.,4.8
1979-07-18 00:07:42.260 ,6,0,,0,3.,4.8,0.,4.8,,0,0.,4.8,0.,4.8
1979-07-18 00:07:47.060 ,6,0,,0,4.,4.8,0.,4.8,,0,0.,4.8,1.,4.8
1979-07-18 00:07:51.860 ,6,0,,0,0.,4.8,0.,4.8,,0,0.,4.8,0.,4.8
1979-07-18 00:07:56.660 ,6,0,,0,0.,4.8,0.,4.8,,0,0.,4.8,0.,4.8
1979-07-18 00:08:01.460 ,5,0,,0,0.,4.8,0.,4.8,,0,0.,4.8,1.,4.8
1979-07-18 00:08:06.260 ,5,0,,0,0.,4.8,0.,4.8,,0,0.,4.8,0.,4.8
1979-07-18 00:08:11.060 ,5,0,,0,1.,4.8,0.,4.8,,0,0.,4.8,0.,4.8
1979-07-18 00:08:15.860 ,5,0,,0,6.,4.8,0.,4.8,,0,0.,4.8,0.,4.8
1979-07-18 00:08:20.660 ,5,0,,0,3.,4.8,0.,4.8,,0,0.,4.8,0.,4.8
1979-07-18 00:08:25.460 ,5,0,,0,3.,4.8,0.,4.8,,0,0.,4.8,2.,4.8
1979-07-18 00:08:30.260 ,5,0,,0,4.,4.8,0.,4.8,,0,0.,4.8,0.,4.8
1979-07-18 00:08:35.060 ,5,0,,0,2.,4.8,0.,4.8,,0,0.,4.8,0.,4.8
1979-07-18 00:08:39.860 ,5,0,,0,0.,4.8,0.,4.8,,0,0.,4.8,0.,4.8
1979-07-18 00:08:44.660 ,5,0,,0,0.,4.8,0.,4.8,,0,0.,4.8,1.,4.8
1979-07-18 00:08:49.460 ,4,0,,0,0.,4.8,0.,4.8,,0,0.,4.8,1.,4.8
1979-07-18 00:08:54.260 ,4,0,,0,0.,4.8,0.,4.8,,0,0.,4.8,0.,4.8
1979-07-18 00:08:59.060 ,4,0,,0,0.,4.8,0.,4.8,,0,0.,4.8,0.,4.8
1979-07-18 00:09:03.860 ,4,0,,0,2.,4.8,0.,4.8,,0,0.,4.8,0.,4.8
1979-07-18 00:09:08.660 ,4,0,,0,3.,4.8,0.,4.8,,0,0.,4.8,0.,4.8
1979-07-18 00:09:13.460 ,4,0,,0,1.,4.8,0.,4.8,,0,0.,4.8,1.,4.8
1979-07-18 00:09:18.260 ,4,0,,0,3.,4.8,0.,4.8,,0,0.,4.8,0.,4.8
1979-07-18 00:09:23.060 ,4,0,,0,2.,4.8,0.,4.8,,0,0.,4.8,0.,4.8
1979-07-18 00:09:27.860 ,4,0,,0,0.,4.8,0.,4.8,,0,0.,4.8,0.,4.8
1979-07-18 00:09:32.660 ,4,0,,0,0.,4.8,0.,4.8,,0,0.,4.8,0.,4.8
1979-07-18 00:09:37.460 ,3,0,,0,0.,4.8,0.,4.8,,0,0.,4.8,0.,4.8
1979-07-18 00:09:42.260 ,3,0,,0,0.,4.8,0.,4.8,,0,0.,4.8,0.,4.8
1979-07-18 00:09:47.060 ,3,0,,0,0.,4.8,0.,4.8,,0,0.,4.8,0.,4.8
1979-07-18 00:09:51.860 ,3,0,,0,3.,4.8,1.,4.8,,0,0.,4.8,1.,4.8
1979-07-18 00:09:56.660 ,3,0,,0,3.,4.8,0.,4.8,,0,0.,4.8,0.,4.8
1979-07-18 00:10:01.460 ,3,0,,0,2.,4.8,0.,4.8,,0,0.,4.8,0.,4.8
1979-07-18 00:10:06.260 ,3,0,,0,6.,4.8,0.,4.8,,0,0.,4.8,0.,4.8
1979-07-18 00:10:11.060 ,3,0,,0,4.,4.8,0.,4.8,,0,0.,4.8,0.,4.8
1979-07-18 00:10:15.860 ,3,0,,0,0.,4.8,0.,4.8,,0,0.,4.8,1.,4.8
1979-07-18 00:10:20.660 ,3,0,,0,0.,4.8,0.,4.8,,0,0.,4.8,0.,4.8
1979-07-18 00:10:25.460 ,2,0,,0,0.,4.8,0.,4.8,,0,0.,4.8,1.,4.8
1979-07-18 00:10:30.260 ,2,0,,0,0.,4.8,0.,4.8,,0,0.,4.8,0.,4.8
1979-07-18 00:10:35.060 ,2,0,,0,0.,4.8,0.,4.8,,0,0.,4.8,3.,4.8
1979-07-18 00:10:39.860 ,2,0,,0,5.,4.8,0.,4.8,,0,0.,4.8,0.,4.8
1979-07-18 00:10:44.660 ,2,0,,0,0.,4.8,0.,4.8,,0,0.,4.8,0.,4.8
1979-07-18 00:10:49.460 ,2,0,,0,3.,4.8,0.,4.8,,0,0.,4.8,0.,4.8
1979-07-18 00:10:54.260 ,2,0,,0,3.,4.8,0.,4.8,,0,0.,4.8,1.,4.8
1979-07-18 00:10:59.060 ,2,0,,0,4.,4.8,0.,4.8,,0,0.,4.8,0.,4.8
1979-07-18 00:11:03.860 ,2,0,,0,0.,4.8,0.,4.8,,0,0.,4.8,0.,4.8
1979-07-18 00:11:08.660 ,2,0,,0,0.,4.8,0.,4.8,,0,0.,4.8,0.,4.8
1979-07-18 00:11:13.460 ,1,0,,0,0.,4.8,0.,4.8,,0,0.,4.8,0.,4.8
1979-07-18 00:11:18.260 ,1,0,,0,0.,4.8,0.,4.8,,0,0.,4.8,0.,4.8
1979-07-18 00:11:23.060 ,1,0,,0,1.,4.8,0.,4.8,,0,0.,4.8,0.,4.8
1979-07-18 00:11:27.860 ,1,0,,0,3.,4.8,0.,4.8,,0,0.,4.8,0.,4.8
1979-07-18 00:11:32.660 ,1,0,,0,0.,4.8,0.,4.8,,0,0.,4.8,0.,4.8
1979-07-18 00:11:37.460 ,1,0,,0,4.,4.8,0.,4.8,,0,0.,4.8,0.,4.8
1979-07-18 00:11:42.260 ,1,0,,0,1.,4.8,0.,4.8,,0,0.,4.8,0.,4.8
1979-07-18 00:11:47.060 ,1,0,,0,1.,4.8,0.,4.8,,0,0.,4.8,0.,4.8
1979-07-18 00:11:51.860 ,1,0,,0,0.,4.8,0.,4.8,,0,0.,4.8,0.,4.8
1979-07-18 00:11:56.660 ,1,0,,0,0.,4.8,0.,4.8,,0,0.,4.8,0.,4.8
1979-07-18 00:12:01.460 ,0,0,,0,0.,4.8,0.,4.8,,0,0.,4.8,0.,4.8
1979-07-18 00:12:06.260 ,0,0,,0,0.,4.8,0.,4.8,,0,0.,4.8,0.,4.8
1979-07-18 00:12:11.060 ,0,0,,0,0.,4.8,0.,4.8,,0,0.,4.8,0.,4.8
1979-07-18 00:12:15.860 ,0,0,,0,4.,4.8,0.,4.8,,0,0.,4.8,0.,4.8
1979-07-18 00:12:20.660 ,0,0,,0,2.,4.8,0.,4.8,,0,0.,4.8,0.,4.8
1979-07-18 00:12:25.460 ,0,0,,0,1.,4.8,0.,4.8,,0,0.,4.8,0.,4.8
1979-07-18 00:12:30.260 ,0,0,,0,4.,4.8,0.,4.8,,0,0.,4.8,0.,4.8
1979-07-18 00:12:35.060 ,0,0,,0,2.,4.8,0.,4.8,,0,0.,4.8,0.,4.8
1979-07-18 00:12:39.860 ,0,0,,0,0.,4.8,0.,4.8,,0,0.,4.8,0.,4.8
1979-07-18 00:12:44.660 ,0,0,,0,0.,4.8,0.,4.8,,0,0.,4.8,0.,4.8
1979-07-18 00:12:49.460 ,0,0,,0,0.,4.8,0.,4.8,,0,0.,4.8,0.,4.8
1979-07-18 00:12:54.260 ,0,0,,0,0.,4.8,0.,4.8,,0,0.,4.8,0.,4.8
1979-07-18 00:12:59.060 ,0,0,,0,1.,4.8,0.,4.8,,0,0.,4.8,0.,4.8
1979-07-18 00:13:03.860 ,0,0,,0,2.,4.8,0.,4.8,,0,0.,4.8,0.,4.8
1979-07-18 00:13:08.660 ,0,0,,0,1.,4.8,0.,4.8,,0,0.,4.8,0.,4.8
1979-07-18 00:13:13.460 ,0,0,,0,1.,4.8,0.,4.8,,0,0.,4.8,0.,4.8
1979-07-18 00:13:18.260 ,0,0,,0,3.,4.8,0.,4.8,,0,0.,4.8,0.,4.8
1979-07-18 00:13:23.060 ,0,0,,0,0.,4.8,0.,4.8,,0,0.,4.8,0.,4.8
1979-07-18 00:13:27.860 ,0,0,,0,0.,4.8,0.,4.8,,0,0.,4.8,0.,4.8
1979-07-18 00:13:32.660 ,0,0,,0,0.,4.8,0.,4.8,,0,0.,4.8,0.,4.8
1979-07-18 00:13:37.460 ,1,0,,0,0.,4.8,0.,4.8,,0,0.,4.8,0.,4.8
1979-07-18 00:13:42.260 ,1,0,,0,0.,4.8,0.,4.8,,0,0.,4.8,0.,4.8
1979-07-18 00:13:47.060 ,1,0,,0,0.,4.8,0.,4.8,,0,0.,4.8,0.,4.8
1979-07-18 00:13:51.860 ,1,0,,0,0.,4.8,0.,4.8,,0,0.,4.8,1.,4.8
1979-07-18 00:13:56.660 ,1,0,,0,4.,4.8,0.,4.8,,0,0.,4.8,0.,4.8
1979-07-18 00:14:01.460 ,1,0,,0,3.,4.8,0.,4.8,,0,0.,4.8,0.,4.8
1979-07-18 00:14:06.260 ,1,0,,0,2.,4.8,0.,4.8,,0,0.,4.8,0.,4.8
1979-07-18 00:14:11.060 ,1,0,,0,0.,4.8,0.,4.8,,0,0.,4.8,0.,4.8
1979-07-18 00:14:15.860 ,1,0,,0,0.,4.8,0.,4.8,,0,0.,4.8,0.,4.8
1979-07-18 00:14:20.660 ,1,0,,0,0.,4.8,0.,4.8,,0,0.,4.8,0.,4.8
1979-07-18 00:14:25.460 ,2,0,,0,0.,4.8,0.,4.8,,0,0.,4.8,0.,4.8
1979-07-18 00:14:30.260 ,2,0,,0,0.,4.8,0.,4.8,,0,0.,4.8,1.,4.8
1979-07-18 00:14:35.060 ,2,0,,0,0.,4.8,0.,4.8,,0,0.,4.8,0.,4.8
1979-07-18 00:14:39.860 ,2,0,,0,3.,4.8,0.,4.8,,0,0.,4.8,0.,4.8
1979-07-18 00:14:44.660 ,2,0,,0,1.,4.8,0.,4.8,,0,0.,4.8,0.,4.8
1979-07-18 00:14:49.460 ,2,0,,0,1.,4.8,0.,4.8,,0,0.,4.8,0.,4.8
1979-07-18 00:14:54.260 ,2,0,,0,5.,4.8,0.,4.8,,0,0.,4.8,1.,4.8
1979-07-18 00:14:59.060 ,2,0,,0,5.,4.8,0.,4.8,,0,0.,4.8,0.,4.8
1979-07-18 00:15:03.860 ,2,0,,0,0.,4.8,0.,4.8,,0,0.,4.8,0.,4.8
1979-07-18 00:15:08.660 ,2,0,,0,0.,4.8,0.,4.8,,0,0.,4.8,0.,4.8
1979-07-18 00:15:13.460 ,3,0,,0,0.,4.8,0.,4.8,,0,0.,4.8,1.,4.8
1979-07-18 00:15:18.260 ,3,0,,0,0.,4.8,0.,4.8,,0,0.,4.8,0.,4.8
1979-07-18 00:15:23.060 ,3,0,,0,1.,4.8,0.,4.8,,0,0.,4.8,0.,4.8
1979-07-18 00:15:27.860 ,3,0,,0,3.,4.8,0.,4.8,,0,0.,4.8,1.,4.8
1979-07-18 00:15:32.660 ,3,0,,0,3.,4.8,0.,4.8,,0,0.,4.8,0.,4.8
1979-07-18 00:15:37.460 ,3,0,,0,2.,4.8,0.,4.8,,0,0.,4.8,0.,4.8
1979-07-18 00:15:42.260 ,3,0,,0,3.,4.8,0.,4.8,,0,0.,4.8,0.,4.8
1979-07-18 00:15:47.060 ,3,0,,0,4.,4.8,0.,4.8,,0,0.,4.8,1.,4.8
1979-07-18 00:15:51.860 ,3,0,,0,0.,4.8,0.,4.8,,0,0.,4.8,1.,4.8
1979-07-18 00:15:56.660 ,3,0,,0,0.,4.8,0.,4.8,,0,0.,4.8,0.,4.8
1979-07-18 00:16:01.460 ,4,0,,0,0.,4.8,0.,4.8,,0,0.,4.8,0.,4.8
1979-07-18 00:16:06.260 ,4,0,,0,0.,4.8,0.,4.8,,0,0.,4.8,1.,4.8
1979-07-18 00:16:11.060 ,4,0,,0,1.,4.8,0.,4.8,,0,0.,4.8,0.,4.8
1979-07-18 00:16:15.860 ,4,0,,0,2.,4.8,0.,4.8,,0,0.,4.8,0.,4.8
1979-07-18 00:16:20.660 ,4,0,,0,3.,4.8,0.,4.8,,0,0.,4.8,0.,4.8
1979-07-18 00:16:25.460 ,4,0,,0,4.,4.8,0.,4.8,,0,0.,4.8,0.,4.8
1979-07-18 00:16:30.260 ,4,0,,0,2.,4.8,0.,4.8,,0,0.,4.8,0.,4.8
1979-07-18 00:16:35.060 ,4,0,,0,2.,4.8,0.,4.8,,0,0.,4.8,0.,4.8
1979-07-18 00:16:39.860 ,4,0,,0,0.,4.8,0.,4.8,,0,0.,4.8,0.,4.8
1979-07-18 00:16:44.660 ,4,0,,0,0.,4.8,0.,4.8,,0,0.,4.8,0.,4.8
1979-07-18 00:16:49.460 ,5,0,,0,0.,4.8,0.,4.8,,0,0.,4.8,0.,4.8
1979-07-18 00:16:54.260 ,5,0,,0,0.,4.8,0.,4.8,,0,0.,4.8,0.,4.8
1979-07-18 00:16:59.060 ,5,0,,0,0.,4.8,0.,4.8,,0,0.,4.8,0.,4.8
1979-07-18 00:17:03.860 ,5,0,,0,2.,4.8,0.,4.8,,0,0.,4.8,0.,4.8
1979-07-18 00:17:08.660 ,5,0,,0,11.,4.8,0.,4.8,,0,0.,4.8,0.,4.8
1979-07-18 00:17:13.460 ,0,0,,0,5.,4.8,0.,4.8,,0,0.,4.8,0.,4.8
1979-07-18 00:17:18.260 ,0,0,,0,3.,4.8,0.,4.8,,0,0.,4.8,0.,4.8
1979-07-18 00:17:23.060 ,0,0,,0,3.,4.8,0.,4.8,,0,0.,4.8,0.,4.8
1979-07-18 00:17:27.860 ,0,0,,0,0.,4.8,0.,4.8,,0,0.,4.8,0.,4.8
1979-07-18 00:17:32.660 ,0,0,,0,,0,,0,,0,,0,,0
1979-07-18 00:17:40.460 ,0,0,,0,0.,4.8,0.,4.8,,0,0.,4.8,2.,4.8
1979-07-18 00:17:45.260 ,0,0,,0,0.,4.8,0.,4.8,,0,0.,4.8,0.,4.8
1979-07-18 00:17:50.060 ,0,0,,0,2.,4.8,0.,4.8,,0,0.,4.8,0.,4.8
1979-07-18 00:17:54.860 ,0,0,,0,0.,4.8,0.,4.8,,0,0.,4.8,0.,4.8
1979-07-18 00:17:59.660 ,0,0,,0,5.,4.8,0.,4.8,,0,0.,4.8,0.,4.8
1979-07-18 00:18:01.460 ,0,0,,0,6.,4.8,0.,4.8,,0,0.,4.8,0.,4.8
1979-07-18 00:18:06.260 ,0,0,,0,5.,4.8,1.,4.8,,0,0.,4.8,0.,4.8
1979-07-18 00:18:11.060 ,0,0,,0,6.,4.8,1.,4.8,,0,0.,4.8,0.,4.8
1979-07-18 00:18:15.860 ,0,0,,0,0.,4.8,0.,4.8,,0,0.,4.8,0.,4.8
1979-07-18 00:18:20.660 ,0,0,,0,1.,4.8,0.,4.8,,0,0.,4.8,0.,4.8
1979-07-18 00:18:25.460 ,7,0,,0,0.,4.8,0.,4.8,,0,0.,4.8,0.,4.8
1979-07-18 00:18:30.260 ,7,0,,0,0.,4.8,0.,4.8,,0,0.,4.8,0.,4.8
1979-07-18 00:18:35.060 ,7,0,,0,8.,4.8,0.,4.8,,0,0.,4.8,0.,4.8
1979-07-18 00:18:39.860 ,7,0,,0,2.,4.8,0.,4.8,,0,0.,4.8,0.,4.8
1979-07-18 00:18:44.660 ,7,0,,0,16.,4.8,0.,4.8,,0,0.,4.8,0.,4.8
1979-07-18 00:18:49.460 ,7,0,,0,18.,4.8,0.,4.8,,0,0.,4.8,0.,4.8
1979-07-18 00:18:54.260 ,7,0,,0,15.,4.8,0.,4.8,,0,0.,4.8,0.,4.8
1979-07-18 00:18:59.060 ,7,0,,0,19.,4.8,0.,4.8,,0,0.,4.8,0.,4.8
1979-07-18 00:19:03.860 ,7,0,,0,0.,4.8,0.,4.8,,0,0.,4.8,0.,4.8
1979-07-18 00:19:08.660 ,7,0,,0,0.,4.8,0.,4.8,,0,0.,4.8,0.,4.8
1979-07-18 00:19:13.460 ,3,1,,0,0.,4.8,0.,4.8,,0,0.,4.8,1.,4.8
1979-07-18 00:19:18.260 ,3,1,,0,0.,4.8,0.,4.8,,0,0.,4.8,1.,4.8
1979-07-18 00:19:23.060 ,3,1,,0,0.,4.8,0.,4.8,,0,0.,4.8,1.,4.8
1979-07-18 00:19:27.860 ,3,1,,0,3.,4.8,0.,4.8,,0,0.,4.8,0.,4.8
1979-07-18 00:19:32.660 ,3,1,,0,0.,4.8,0.,4.8,,0,0.,4.8,0.,4.8
1979-07-18 00:19:37.460 ,0,1,,0,5.,4.8,0.,4.8,,0,0.,4.8,0.,4.8
1979-07-18 00:19:42.260 ,0,1,,0,2.,4.8,0.,4.8,,0,0.,4.8,0.,4.8
1979-07-18 00:19:47.060 ,0,1,,0,0.,4.8,0.,4.8,,0,0.,4.8,0.,4.8
1979-07-18 00:19:51.860 ,0,1,,0,0.,4.8,0.,4.8,,0,0.,4.8,0.,4.8
1979-07-18 00:19:56.660 ,0,1,,0,0.,4.8,0.,4.8,,0,0.,4.8,0.,4.8
1979-07-18 00:20:01.460 ,4,1,,0,0.,4.8,0.,4.8,,0,0.,4.8,1.,4.8
1979-07-18 00:20:06.260 ,4,1,,0,0.,4.8,0.,4.8,,0,0.,4.8,0.,4.8
1979-07-18 00:20:11.060 ,4,1,,0,1.,4.8,0.,4.8,,0,0.,4.8,0.,4.8
1979-07-18 00:20:15.860 ,4,1,,0,2.,4.8,0.,4.8,,0,0.,4.8,0.,4.8
1979-07-18 00:20:20.660 ,4,1,,0,5.,4.8,0.,4.8,,0,0.,4.8,0.,4.8
1979-07-18 00:20:25.460 ,7,1,,0,3.,4.8,0.,4.8,,0,0.,4.8,0.,4.8
1979-07-18 00:20:30.260 ,7,1,,0,2.,4.8,0.,4.8,,0,0.,4.8,0.,4.8
1979-07-18 00:20:35.060 ,7,1,,0,0.,4.8,0.,4.8,,0,0.,4.8,1.,4.8
1979-07-18 00:20:39.860 ,7,1,,0,0.,4.8,0.,4.8,,0,0.,4.8,0.,4.8
1979-07-18 00:20:44.660 ,7,1,,0,0.,4.8,0.,4.8,,0,0.,4.8,0.,4.8
1979-07-18 00:20:49.460 ,3,1,,0,0.,4.8,0.,4.8,,0,0.,4.8,1.,4.8
1979-07-18 00:20:54.260 ,3,1,,0,0.,4.8,0.,4.8,,0,0.,4.8,0.,4.8
1979-07-18 00:20:59.060 ,3,1,,0,3.,4.8,0.,4.8,,0,0.,4.8,0.,4.8
1979-07-18 00:21:03.860 ,3,1,,0,5.,4.8,0.,4.8,,0,0.,4.8,0.,4.8
1979-07-18 00:21:08.660 ,3,1,,0,5.,4.8,0.,4.8,,0,0.,4.8,0.,4.8
1979-07-18 00:21:13.460 ,0,1,,0,2.,4.8,0.,4.8,,0,0.,4.8,0.,4.8
1979-07-18 00:21:18.260 ,0,1,,0,4.,4.8,0.,4.8,,0,0.,4.8,0.,4.8
1979-07-18 00:21:23.060 ,0,1,,0,0.,4.8,0.,4.8,,0,0.,4.8,0.,4.8
1979-07-18 00:21:27.860 ,0,1,,0,0.,4.8,0.,4.8,,0,0.,4.8,0.,4.8
1979-07-18 00:21:32.660 ,0,1,,0,0.,4.8,0.,4.8,,0,0.,4.8,0.,4.8
1979-07-18 00:21:37.460 ,4,1,,0,0.,4.8,0.,4.8,,0,0.,4.8,0.,4.8
1979-07-18 00:21:42.260 ,4,1,,0,0.,4.8,0.,4.8,,0,0.,4.8,0.,4.8
1979-07-18 00:21:47.060 ,4,1,,0,1.,4.8,0.,4.8,,0,0.,4.8,0.,4.8
1979-07-18 00:21:51.860 ,4,1,,0,4.,4.8,0.,4.8,,0,0.,4.8,0.,4.8
1979-07-18 00:21:56.660 ,4,1,,0,1.,4.8,0.,4.8,,0,0.,4.8,1.,4.8
1979-07-18 00:22:01.460 ,7,1,,0,6.,4.8,0.,4.8,,0,0.,4.8,0.,4.8
1979-07-18 00:22:06.260 ,7,1,,0,5.,4.8,0.,4.8,,0,0.,4.8,0.,4.8
1979-07-18 00:22:11.060 ,7,1,,0,5.,4.8,0.,4.8,,0,0.,4.8,0.,4.8
1979-07-18 00:22:15.860 ,7,1,,0,0.,4.8,0.,4.8,,0,0.,4.8,0.,4.8
1979-07-18 00:22:20.660 ,7,1,,0,0.,4.8,0.,4.8,,0,0.,4.8,0.,4.8
1979-07-18 00:22:25.460 ,0,0,,0,0.,4.8,0.,4.8,,0,0.,4.8,0.,4.8
1979-07-18 00:22:30.260 ,0,0,,0,,0,,0,,0,,0,,0
1979-07-18 00:22:35.060 ,0,0,,0,,0,,0,,0,,0,,0
1979-07-18 00:22:39.860 ,0,0,,0,,0,,0,,0,,0,,0
1979-07-18 00:22:44.660 ,0,0,,0,,0,,0,,0,,0,,0
1979-07-18 00:22:49.460 ,0,0,,0,,0,,0,,0,,0,,0
1979-07-18 00:22:54.260 ,0,0,,0,,0,,0,,0,,0,,0
1979-07-18 00:22:59.060 ,0,0,,0,,0,,0,,0,,0,,0
1979-07-18 00:23:03.860 ,0,0,,0,,0,,0,,0,,0,,0
1979-07-18 00:23:08.660 ,0,0,,0,,0,,0,,0,,0,,0
1979-07-18 00:22:49.460 ,0,1,,0,3.,4.8,0.,4.8,,0,0.,4.8,0.,4.8
1979-07-18 00:22:54.260 ,0,1,,0,3.,4.8,0.,4.8,,0,0.,4.8,1.,4.8
1979-07-18 00:22:59.060 ,0,1,,0,3.,4.8,0.,4.8,,0,0.,4.8,0.,4.8
1979-07-18 00:23:03.860 ,0,1,,0,0.,4.8,0.,4.8,,0,0.,4.8,0.,4.8
1979-07-18 00:23:08.660 ,0,1,,0,0.,4.8,0.,4.8,,0,0.,4.8,0.,4.8
1979-07-18 00:23:13.460 ,4,1,,0,0.,4.8,0.,4.8,,0,0.,4.8,0.,4.8
1979-07-18 00:23:18.260 ,4,1,,0,0.,4.8,0.,4.8,,0,0.,4.8,0.,4.8
1979-07-18 00:23:23.060 ,4,1,,0,1.,4.8,0.,4.8,,0,0.,4.8,3.,4.8
1979-07-18 00:23:27.860 ,4,1,,0,5.,4.8,0.,4.8,,0,0.,4.8,1.,4.8
1979-07-18 00:23:32.660 ,4,1,,0,5.,4.8,0.,4.8,,0,0.,4.8,1.,4.8
1979-07-18 00:23:37.460 ,7,1,,0,4.,4.8,0.,4.8,,0,0.,4.8,0.,4.8
1979-07-18 00:23:42.260 ,7,1,,0,5.,4.8,0.,4.8,,0,0.,4.8,0.,4.8
1979-07-18 00:23:47.060 ,7,1,,0,1.,4.8,0.,4.8,,0,0.,4.8,0.,4.8
1979-07-18 00:23:51.860 ,7,1,,0,0.,4.8,0.,4.8,,0,0.,4.8,0.,4.8
1979-07-18 00:23:56.660 ,7,1,,0,0.,4.8,0.,4.8,,0,0.,4.8,0.,4.8
1979-07-18 00:24:01.460 ,3,1,,0,0.,4.8,0.,4.8,,0,0.,4.8,0.,4.8
1979-07-18 00:24:06.260 ,3,1,,0,0.,4.8,0.,4.8,,0,0.,4.8,0.,4.8
1979-07-18 00:24:11.060 ,3,1,,0,0.,4.8,0.,4.8,,0,0.,4.8,0.,4.8
1979-07-18 00:24:15.860 ,3,1,,0,4.,4.8,0.,4.8,,0,0.,4.8,1.,4.8
1979-07-18 00:24:20.660 ,3,1,,0,4.,4.8,0.,4.8,,0,0.,4.8,1.,4.8
1979-07-18 00:24:25.460 ,0,1,,0,1.,4.8,0.,4.8,,0,0.,4.8,0.,4.8
1979-07-18 00:24:30.260 ,0,1,,0,0.,4.8,0.,4.8,,0,0.,4.8,0.,4.8
1979-07-18 00:24:35.060 ,0,1,,0,1.,4.8,0.,4.8,,0,0.,4.8,0.,4.8
1979-07-18 00:24:39.860 ,0,1,,0,0.,4.8,0.,4.8,,0,0.,4.8,0.,4.8
1979-07-18 00:24:44.660 ,0,1,,0,0.,4.8,0.,4.8,,0,0.,4.8,0.,4.8
1979-07-18 00:24:49.460 ,4,1,,0,0.,4.8,0.,4.8,,0,0.,4.8,0.,4.8
1979-07-18 00:24:54.260 ,4,1,,0,0.,4.8,0.,4.8,,0,0.,4.8,0.,4.8
1979-07-18 00:24:59.060 ,4,1,,0,0.,4.8,0.,4.8,,0,0.,4.8,1.,4.8
1979-07-18 00:25:03.860 ,4,1,,0,4.,4.8,0.,4.8,,0,0.,4.8,0.,4.8
1979-07-18 00:25:08.660 ,4,1,,0,4.,4.8,1.,4.8,,0,0.,4.8,1.,4.8
1979-07-18 00:25:13.460 ,7,1,,0,3.,4.8,0.,4.8,,0,0.,4.8,1.,4.8
1979-07-18 00:25:18.260 ,7,1,,0,2.,4.8,0.,4.8,,0,0.,4.8,2.,4.8
1979-07-18 00:25:23.060 ,7,1,,0,5.,4.8,0.,4.8,,0,0.,4.8,0.,4.8
1979-07-18 00:25:27.860 ,7,1,,0,0.,4.8,0.,4.8,,0,0.,4.8,0.,4.8
1979-07-18 00:25:32.660 ,7,1,,0,0.,4.8,0.,4.8,,0,0.,4.8,0.,4.8
1979-07-18 00:25:37.460 ,3,1,,0,0.,4.8,0.,4.8,,0,0.,4.8,0.,4.8
1979-07-18 00:25:42.260 ,3,1,,0,0.,4.8,0.,4.8,,0,0.,4.8,0.,4.8
1979-07-18 00:25:47.060 ,3,1,,0,0.,4.8,0.,4.8,,0,0.,4.8,1.,4.8
1979-07-18 00:25:51.860 ,3,1,,0,5.,4.8,0.,4.8,,0,0.,4.8,0.,4.8
1979-07-18 00:25:56.660 ,3,1,,0,4.,4.8,0.,4.8,,0,0.,4.8,0.,4.8
1979-07-18 00:26:01.460 ,0,1,,0,5.,4.8,0.,4.8,,0,0.,4.8,0.,4.8
1979-07-18 00:26:06.260 ,0,1,,0,7.,4.8,0.,4.8,,0,0.,4.8,0.,4.8
1979-07-18 00:26:11.060 ,0,1,,0,4.,4.8,0.,4.8,,0,0.,4.8,0.,4.8
1979-07-18 00:26:15.860 ,0,1,,0,0.,4.8,0.,4.8,,0,0.,4.8,0.,4.8
1979-07-18 00:26:20.660 ,0,1,,0,0.,4.8,0.,4.8,,0,0.,4.8,0.,4.8
1979-07-18 00:26:25.460 ,4,1,,0,0.,4.8,0.,4.8,,0,0.,4.8,0.,4.8
1979-07-18 00:26:30.260 ,4,1,,0,0.,4.8,0.,4.8,,0,0.,4.8,0.,4.8
1979-07-18 00:26:35.060 ,4,1,,0,0.,4.8,0.,4.8,,0,0.,4.8,0.,4.8
1979-07-18 00:26:39.860 ,4,1,,0,5.,4.8,0.,4.8,,0,0.,4.8,0.,4.8
1979-07-18 00:26:44.660 ,4,1,,0,1.,4.8,0.,4.8,,0,0.,4.8,0.,4.8
1979-07-18 00:26:49.460 ,7,1,,0,7.,4.8,0.,4.8,,0,0.,4.8,1.,4.8
1979-07-18 00:26:54.260 ,7,1,,0,3.,4.8,0.,4.8,,0,0.,4.8,0.,4.8
1979-07-18 00:26:59.060 ,7,1,,0,3.,4.8,0.,4.8,,0,0.,4.8,0.,4.8
1979-07-18 00:27:03.860 ,7,1,,0,0.,4.8,0.,4.8,,0,0.,4.8,0.,4.8
1979-07-18 00:27:08.660 ,7,1,,0,0.,4.8,0.,4.8,,0,0.,4.8,0.,4.8
1979-07-18 00:27:13.460 ,3,1,,0,0.,4.8,0.,4.8,,0,0.,4.8,0.,4.8
1979-07-18 00:27:18.260 ,3,1,,0,0.,4.8,0.,4.8,,0,0.,4.8,0.,4.8
1979-07-18 00:27:23.060 ,3,1,,0,1.,4.8,0.,4.8,,0,0.,4.8,0.,4.8
1979-07-18 00:27:27.860 ,3,1,,0,7.,4.8,0.,4.8,,0,0.,4.8,0.,4.8
1979-07-18 00:27:32.660 ,3,1,,0,3.,4.8,0.,4.8,,0,0.,4.8,1.,4.8
1979-07-18 00:27:37.460 ,0,1,,0,5.,4.8,0.,4.8,,0,0.,4.8,0.,4.8
1979-07-18 00:27:42.260 ,0,1,,0,3.,4.8,0.,4.8,,0,0.,4.8,1.,4.8
1979-07-18 00:27:47.060 ,0,1,,0,4.,4.8,0.,4.8,,0,0.,4.8,0.,4.8
1979-07-18 00:27:51.860 ,0,1,,0,0.,4.8,0.,4.8,,0,0.,4.8,0.,4.8
1979-07-18 00:27:56.660 ,0,1,,0,0.,4.8,0.,4.8,,0,0.,4.8,0.,4.8
1979-07-18 00:28:01.460 ,4,1,,0,0.,4.8,0.,4.8,,0,0.,4.8,0.,4.8
1979-07-18 00:28:06.260 ,4,1,,0,0.,4.8,0.,4.8,,0,0.,4.8,1.,4.8
1979-07-18 00:28:11.060 ,4,1,,0,1.,4.8,0.,4.8,,0,0.,4.8,0.,4.8
1979-07-18 00:28:15.860 ,4,1,,0,2.,4.8,1.,4.8,,0,0.,4.8,1.,4.8
1979-07-18 00:28:20.660 ,4,1,,0,3.,4.8,0.,4.8,,0,0.,4.8,0.,4.8
1979-07-18 00:28:25.460 ,7,1,,0,6.,4.8,0.,4.8,,0,0.,4.8,0.,4.8
1979-07-18 00:28:30.260 ,7,1,,0,3.,4.8,0.,4.8,,0,0.,4.8,0.,4.8
1979-07-18 00:28:35.060 ,7,1,,0,1.,4.8,0.,4.8,,0,0.,4.8,0.,4.8
1979-07-18 00:28:39.860 ,7,1,,0,0.,4.8,0.,4.8,,0,0.,4.8,0.,4.8
1979-07-18 00:28:44.660 ,7,1,,0,0.,4.8,0.,4.8,,0,0.,4.8,0.,4.8
1979-07-18 00:28:49.460 ,3,1,,0,0.,4.8,0.,4.8,,0,0.,4.8,0.,4.8
1979-07-18 00:28:54.260 ,3,1,,0,0.,4.8,0.,4.8,,0,0.,4.8,0.,4.8
1979-07-18 00:28:59.060 ,3,1,,0,1.,4.8,0.,4.8,,0,0.,4.8,0.,4.8
1979-07-18 00:29:03.860 ,3,1,,0,2.,4.8,0.,4.8,,0,0.,4.8,0.,4.8
1979-07-18 00:29:08.660 ,3,1,,0,4.,4.8,0.,4.8,,0,0.,4.8,0.,4.8
1979-07-18 00:29:13.460 ,0,1,,0,3.,4.8,0.,4.8,,0,0.,4.8,0.,4.8
1979-07-18 00:29:18.260 ,0,1,,0,6.,4.8,0.,4.8,,0,0.,4.8,0.,4.8
1979-07-18 00:29:23.060 ,0,1,,0,2.,4.8,0.,4.8,,0,0.,4.8,0.,4.8
1979-07-18 00:29:27.860 ,0,1,,0,0.,4.8,0.,4.8,,0,0.,4.8,0.,4.8
1979-07-18 00:29:32.660 ,0,1,,0,0.,4.8,0.,4.8,,0,0.,4.8,0.,4.8
1979-07-18 00:29:37.460 ,0,0,,0,0.,4.8,0.,4.8,,0,0.,4.8,0.,4.8
1979-07-18 00:29:42.260 ,0,0,,0,0.,4.8,0.,4.8,,0,0.,4.8,0.,4.8
1979-07-18 00:29:47.060 ,0,0,,0,0.,4.8,0.,4.8,,0,0.,4.8,0.,4.8
1979-07-18 00:29:51.860 ,0,0,,0,3.,4.8,0.,4.8,,0,0.,4.8,0.,4.8
1979-07-18 00:29:56.660 ,0,0,,0,3.,4.8,0.,4.8,,0,0.,4.8,1.,4.8